Regional Weather Roundup
Issued by NWS New Orleans/Baton Rouge, LA

Home | Current Version | Previous Version | Graphics & Text | Print | Product List | Glossary On
Versions: 1 2 3 4 5 6 7 8 9 10 11 12 13 14 15 16 17 18 19 20 21 22 23 24 25 26 27 28 29 30 31 32 33 34 35 36 37 38 39 40 41 42 43 44 45 46 47 48 49 50
932
ASUS44 KLIX 290705
RWRLIX
NEW ORLEANS REGIONAL WEATHER ROUNDUP
NATIONAL WEATHER SERVICE NEW ORLEANS LA
200 AM CDT TUE JUL 29 2014

NOTE: "FAIR" INDICATES FEW OR NO CLOUDS BELOW 12,000 FEET WITH NO
      SIGNIFICANT WEATHER AND/OR OBSTRUCTIONS TO VISIBILITY.
      SKY/WX - SKY CONDITION AND SIGNIFICANT WEATHER.
      TMP - AIR TEMPERATURE.     DP    - DEWPOINT TEMPERATURE.
      RH  - RELATIVE HUMIDITY.   PRES  - PRESSURE.
      HI  - HEAT INDEX.          WCI   - WIND CHILL INDEX.

*  THESE STATIONS ARE NOT NWS OR FAA STATIONS AND ARE NOT UNDER
   NWS QUALITY CONTROL.

LAZ038-040-048-061>063-065>067-069-290800-
SOUTHEAST LOUISIANA

CITY           SKY/WX    TMP DP  RH WIND       PRES   REMARKS
N.O. AUDUBON     N/A     84  76  77 MISG        N/A
N.O. INTL ARPT MOCLDY    83  73  72 N9        30.00S
N.O. LAKEFRONT CLOUDY    84  73  69 NE20      30.00S
N.O. DOWNTOWN* CLOUDY    84  70  61 N6        30.01R
SLIDELL        PTCLDY    77  74  90 N3        29.99S
BATON ROUGE    MOCLDY    76  72  87 CALM      30.00F
BOOTHVILLE     HVY RAIN  80  75  84 NW10      30.01R
BELLE CHASSE   MOCLDY    83  74  74 VRB6      29.99S
BOGALUSA*        N/A     75  70  84 N3        30.02S
GALLIANO*      NOT AVBL
NEW ROADS*       N/A     74  73  96 CALM      30.02R
GONZALES*        N/A     76  76  99 CALM      30.00S
HAMMOND*       PTCLDY    77  73  88 CALM      30.02S
HOUMA*         CLOUDY    81  71  71 CALM      30.01S
PORT FOURCHON* CLOUDY    84  79  84 W12G18    30.01F HX  96

$$

MSZ070-080>082-290800-
SOUTHERN MISSISSIPPI

CITY           SKY/WX    TMP DP  RH WIND       PRES   REMARKS
MCCOMB         PTCLDY    75  67  76 N6        30.02F
GULFPORT       PTCLDY    83  70  64 N9        29.98F
BILOXI         PTCLDY    80  71  73 N3        29.98F
PASCAGOULA     CLEAR     77  72  84 N7        29.98S

$$

COASTAL OBSERVATIONS
LAKE AND NEARSHORE STATIONS

STATION/POSITION TIME  TEMP    WIND        PRES    WAVE
                       AIR SEA DIR/SP/G            HT/PER
                 (UTC) (F)     (DEG/KT/KT) (MB)    (FT/S)
PASCAGOULA       0700   81     360/  9/ 15 1014.5
WAVELAND YACHT   0700   82      10/ 13/ 15 1014.9
GRAND ISLE       0700   85 87  290/ 12/ 14 1016.3
SOUTHWEST PASS   0700   84 84  270/ 15/ 19 1015.9
NEW CANAL        0700   84 85   20/ 13/ 15 1016.1
SHELL BEACH      0700   84 83  360/ 12/ 15 1015.4

OFFSHORE STATIONS

STATION/POSITION TIME  TEMP    WIND        PRES    WAVE
                       AIR SEA DIR/SP/G            HT/PER
                 (UTC) (F)     (DEG/KT/KT) (MB)    (FT/S)
64 S DAUPHIN ISL 0619   86 86  280/ 17/ 19 1014.9

$$




USA.gov is the U.S. government's official web portal to all federal, state and local government web resources and services.